User: anonymous   Login
Location: Coche
(10.4506°N, 66.9257°W)
Time: 11:58:45
(UTC+00:00)
Language:

Kosmos-800 - Orbit

View from above orbital plane
View from above orbital plane
View from above satellite
View from above satellite

Ground track
Ground track

The orbit data is extracted from the following two-line orbital elements,

1 08645U 76011A   22268.80552924  .00000043  00000-0  30501-4 0  9993
2 08645  82.9752  35.1814 0021915 156.6339 313.8624 13.72024681334833
Epoch (UTC): 25 September 2022 19:19:57
Eccentricity: 0.0021915
inclination: 82.9752°
perigee height: 976 km
apogee height: 1008 km
right ascension of ascending node: 35.1814°
argument of perigee: 156.6339°
revolutions per day: 13.72024681
mean anomaly at epoch: 313.8624°
orbit number at epoch: 33483

The dashed part of the orbit path shows where the satellite is in the earth's shadow,  

DLR